This is the latest recevied weather packets stored in our database for station/object KC3SOZ. If no packets are shown the sender has not sent any weather packets the latest 10 day(s).
| Time | Temp. | Humidity | Pressure | Rain* | Wind** | Luminosity | Snow |
|---|---|---|---|---|---|---|---|
| 1777479149 | 13.89° C | 84% | 1014.1 hPa | 0 mm | - | 133 W/m² | - |
| 1777478846 | 13.33° C | 85% | 1014.1 hPa | 0 mm | - | 115 W/m² | - |
| 1777478542 | 13.33° C | 85% | 1014 hPa | 0 mm | - | 133 W/m² | - |
| 1777478240 | 13.33° C | 84% | 1014 hPa | 0 mm | - | 179 W/m² | - |
| 1777477936 | 13.33° C | 85% | 1014 hPa | 0 mm | - | 234 W/m² | - |
| 1777477631 | 13.33° C | 85% | 1014.1 hPa | 0 mm | - | 239 W/m² | - |
| 1777477329 | 13.33° C | 86% | 1014.3 hPa | 0 mm | - | 197 W/m² | - |
| 1777477025 | 13.33° C | 86% | 1014.4 hPa | 0 mm | - | 167 W/m² | - |
| 1777476723 | 13.33° C | 85% | 1014.6 hPa | 0 mm | - | 141 W/m² | - |
| 1777476419 | 13.33° C | 85% | 1014.5 hPa | 0 mm | - | 139 W/m² | - |
| 1777476116 | 13.33° C | 85% | 1014.8 hPa | 0 mm | - | 161 W/m² | - |
| 1777475811 | 13.33° C | 86% | 1014.5 hPa | 0 mm | - | 175 W/m² | - |
| 1777475508 | 13.33° C | 86% | 1014.5 hPa | 0 mm | - | 192 W/m² | - |
| 1777475204 | 13.33° C | 86% | 1014.4 hPa | 0 mm | - | 188 W/m² | - |
| 1777474900 | 13.33° C | 86% | 1014.6 hPa | 0 mm | - | 185 W/m² | - |
| 1777474595 | 13.33° C | 86% | 1014.5 hPa | 0 mm | - | 161 W/m² | - |
| 1777474292 | 12.78° C | 86% | 1014.6 hPa | 0 mm | - | 192 W/m² | - |
| 1777473989 | 12.78° C | 87% | 1014.7 hPa | 0 mm | - | 222 W/m² | - |
| 1777473687 | 12.78° C | 86% | 1014.8 hPa | 0 mm | - | 200 W/m² | - |
| 1777473383 | 12.78° C | 86% | 1014.6 hPa | 0 mm | - | 194 W/m² | - |
| 1777473079 | 12.78° C | 86% | 1014.7 hPa | 0 mm | - | 175 W/m² | - |
| 1777472776 | 12.78° C | 86% | 1014.7 hPa | 0 mm | - | 191 W/m² | - |
| 1777472472 | 12.78° C | 86% | 1014.7 hPa | 0 mm | - | 169 W/m² | - |
| 1777472170 | 12.78° C | 85% | 1014.6 hPa | 0 mm | - | 209 W/m² | - |
| 1777471870 | 12.78° C | 86% | 1014.6 hPa | 0 mm | - | 287 W/m² | - |
* Rain latest hour (hover to see other rain measurements)
** Current wind speed in m/s (hover to see current wind gust speed)